Stations météo

réclame
Mon MeteoGroup
Drumalbin, Grande-Bretagne (3155): Température de l'air & dewpoint: 12.01.2019 12:00:00 - 18.01.2019 12:00:00 (GMT)Drumalbin, Grande-Bretagne (3155): Température de l'air -20cm & Température de l'air -100cm: 12.01.2019 12:00:00 - 18.01.2019 12:00:00 (GMT)Drumalbin, Grande-Bretagne (3155): Vitesse du vent & gusts: 12.01.2019 12:00:00 - 18.01.2019 12:00:00 (GMT)Drumalbin, Grande-Bretagne (3155): Direction du vent: 12.01.2019 12:00:00 - 18.01.2019 12:00:00 (GMT)Drumalbin, Grande-Bretagne (3155): reduced air pressure: 12.01.2019 12:00:00 - 18.01.2019 12:00:00 (GMT)Drumalbin, Grande-Bretagne (3155): visibility: 12.01.2019 12:00:00 - 18.01.2019 12:00:00 (GMT)Drumalbin, Grande-Bretagne (3155): Quantités de précipitations: 12.01.2019 12:00:00 - 18.01.2019 12:00:00 (GMT)
Date & Time tt [°C] td [°C] tt -20cm [°C] tt -100cm [°C] ff [km/h] ff [knt] fx [km/h] fx [knt] dd ppp [hPa] vv [km] rr [mm]
18.01.2019 12:00:00 1,3 -4,4 - - 11 6 - - E 1010,9 50 0,0
18.01.2019 11:00:00 0,9 -4,9 - - 11 6 - - SE 1011,5 45 0,0
18.01.2019 10:00:00 -0,7 -6,1 - - 15 8 - - ESE 1012,0 50 0,0
18.01.2019 09:00:00 -1,0 -5,8 4,7 6,2 15 8 - - SE 1012,4 35 0,0
18.01.2019 08:00:00 -1,2 -4,8 - - 11 6 - - SE 1012,3 35 0,0
18.01.2019 07:00:00 -1,3 -4,3 - - 9 5 - - SE 1013,0 35 0,0
18.01.2019 06:00:00 -1,6 -4,4 - - 11 6 - - SE 1013,5 35 0,0
18.01.2019 05:00:00 -1,4 -4,1 - - 18 10 - - SSE 1014,0 35 0,0
18.01.2019 04:00:00 -1,3 -3,8 - - 18 10 - - S 1014,5 35 0,0
18.01.2019 03:00:00 0,1 -3,7 - - 24 13 - - SSE 1014,7 40 0,0
18.01.2019 02:00:00 -1,5 -3,9 - - 2 1 - - ENE 1015,6 40 0,0
18.01.2019 01:00:00 -2,6 -3,9 - - 13 7 - - E 1016,4 35 0,0
18.01.2019 00:00:00 -2,2 -4,1 - - 2 1 - - ESE 1016,7 35 0,0
17.01.2019 23:00:00 -2,4 -3,7 - - 9 5 - - ESE 1017,1 30 0,0
17.01.2019 22:00:00 -1,7 -3,5 - - 9 5 - - ESE 1017,4 40 0,0
17.01.2019 21:00:00 -1,7 -3,6 - - 5 3 - - SW 1017,8 40 0,0
17.01.2019 20:00:00 -0,9 -3,7 - - 8 4 - - S 1017,5 45 0,0
17.01.2019 19:00:00 -1,0 -3,2 - - 5 3 - - SW 1017,3 40 0,0
17.01.2019 18:00:00 -1,0 -3,1 - - 8 4 - - SSW 1017,2 40 0,0
17.01.2019 17:00:00 0,2 -2,9 - - 8 4 - - W 1016,9 40 0,0
17.01.2019 16:00:00 0,3 -2,6 - - 9 5 - - WSW 1016,5 45 0,0
17.01.2019 15:00:00 1,3 -2,5 - - 15 8 - - W 1016,1 40 0,0
17.01.2019 14:00:00 1,8 -2,8 - - 16 9 - - NNW 1015,2 45 0,0
17.01.2019 13:00:00 1,7 -3,4 - - 13 7 - - NW 1015,4 45 0,0
17.01.2019 12:00:00 1,0 -3,3 - - 13 7 - - NW 1014,9 50 0,0
17.01.2019 11:00:00 0,1 -3,2 - - 11 6 - - NW 1014,4 45 0,0
17.01.2019 10:00:00 -1,1 -3,3 - - 11 6 - - WNW 1013,7 40 0,0
17.01.2019 09:00:00 -1,9 -4,2 5,5 6,2 13 7 - - NW 1012,9 40 0,0
17.01.2019 08:00:00 -2,0 -4,6 - - 11 6 - - NW 1011,9 40 0,0
17.01.2019 07:00:00 -1,2 -4,3 - - 22 12 - - WNW 1010,8 45 0,0
17.01.2019 06:00:00 -1,8 -4,2 - - 16 9 - - WNW 1009,6 45 0,0
17.01.2019 05:00:00 -1,7 -4,9 - - 15 8 - - WNW 1008,5 45 0,0
17.01.2019 04:00:00 -1,8 -5,3 - - 18 10 - - NW 1008,1 45 0,0
17.01.2019 03:00:00 -1,8 -5,1 - - 11 6 - - WNW 1007,2 40 0,0
17.01.2019 02:00:00 -1,3 -5,0 - - 16 9 - - NNW 1006,0 40 0,0
17.01.2019 01:00:00 0,0 -4,6 - - 31 17 - - N 1004,7 45 0,0
17.01.2019 00:00:00 0,7 -1,1 - - 28 15 - - N 1003,5 50 0,4
16.01.2019 23:00:00 0,8 0,3 - - 16 9 - - NNW 1002,0 50 0,4
16.01.2019 22:00:00 1,5 0,0 - - 15 8 - - W 1000,2 50 0,0
16.01.2019 21:00:00 2,1 0,9 - - 22 12 - - W 999,1 50 0,0
16.01.2019 20:00:00 0,9 0,3 - - 15 8 - - W 998,6 45 0,0
16.01.2019 19:00:00 1,4 0,8 - - 16 9 - - W 997,9 40 0,0
16.01.2019 18:00:00 1,5 0,8 - - 22 12 - - W 997,6 40 0,0
16.01.2019 17:00:00 1,8 0,6 - - 24 13 - - W 997,0 50 0,0
16.01.2019 16:00:00 2,5 1,8 - - 26 14 - - WSW 996,7 35 0,2
16.01.2019 15:00:00 2,6 1,4 - - 29 16 48 26 WSW 996,3 35 0,0
16.01.2019 14:00:00 3,7 2,2 - - 26 14 - - WSW 996,4 45 0,0
16.01.2019 13:00:00 3,4 1,4 - - 24 13 55 30 W 996,5 50 0,2
16.01.2019 12:00:00 4,3 2,6 - - 22 12 - - WSW 996,8 40 0,0
16.01.2019 11:00:00 3,9 2,0 - - 24 13 - - WSW 996,8 45 0,0
16.01.2019 10:00:00 3,3 1,9 - - 15 8 57 31 WSW 997,0 40 0,0
16.01.2019 09:00:00 4,2 2,5 5,7 6,2 21 11 54 29 W 997,0 15 0,0
16.01.2019 08:00:00 4,5 3,6 - - 18 10 54 29 W 996,3 45 0,8
16.01.2019 07:00:00 5,3 4,3 - - 29 16 - - W 996,0 45 0,2
16.01.2019 06:00:00 4,8 3,8 - - 28 15 52 28 W 996,4 18 0,8
16.01.2019 05:00:00 5,8 5,0 - - 28 15 50 27 WSW 996,4 27 0,4
16.01.2019 04:00:00 7,1 5,6 - - 35 19 54 29 SW 996,3 16 0,0
16.01.2019 03:00:00 7,2 5,0 - - 29 16 55 30 SW 997,6 50 0,0
16.01.2019 02:00:00 7,3 4,7 - - 39 21 61 33 SW 998,3 50 0,0
16.01.2019 01:00:00 7,1 4,8 - - 41 22 61 33 WSW 999,0 50 0,0
16.01.2019 00:00:00 6,8 4,4 - - 35 19 54 29 SW 1000,0 50 0,0
15.01.2019 23:00:00 7,1 4,9 - - 34 18 57 31 SW 1001,3 50 0,0
15.01.2019 22:00:00 7,0 4,9 - - 31 17 52 28 SW 1002,2 50 0,0
15.01.2019 21:00:00 7,4 5,3 - - 28 15 57 31 SW 1003,2 50 0,0
15.01.2019 20:00:00 7,4 5,6 - - 35 19 52 28 SW 1003,8 50 0,0
15.01.2019 19:00:00 7,5 5,7 - - 34 18 55 30 SW 1004,9 50 0,0
15.01.2019 18:00:00 6,8 5,9 - - 34 18 52 28 SW 1005,7 45 0,0
15.01.2019 17:00:00 6,9 5,6 - - 28 15 48 26 SW 1006,6 14 0,0
15.01.2019 16:00:00 7,0 5,1 - - 34 18 48 26 WSW 1007,6 40 0,0
15.01.2019 15:00:00 7,8 4,3 - - 31 17 55 30 WSW 1008,2 50 0,0
15.01.2019 14:00:00 8,0 5,0 - - 35 19 52 28 WSW 1008,7 50 0,0
15.01.2019 13:00:00 7,8 5,3 - - 41 22 57 31 WSW 1009,4 50 0,0
15.01.2019 12:00:00 7,8 5,8 - - 37 20 54 29 WSW 1010,0 50 0,0
15.01.2019 11:00:00 7,3 5,9 - - 29 16 48 26 WSW 1011,0 40 0,0
15.01.2019 10:00:00 7,5 6,3 - - 24 13 50 27 WSW 1011,2 35 0,0
15.01.2019 09:00:00 7,6 6,6 5,7 6,2 35 19 54 29 W 1011,2 30 0,0
15.01.2019 08:00:00 7,5 7,0 - - 37 20 54 29 W 1010,9 30 0,0
15.01.2019 07:00:00 7,4 7,0 - - 37 20 57 31 WSW 1011,0 23 0,0
15.01.2019 06:00:00 7,4 7,0 - - 41 22 57 31 WSW 1011,1 26 0,0
15.01.2019 05:00:00 7,3 7,0 - - 42 23 55 30 WSW 1011,6 18 0,0
15.01.2019 04:00:00 6,9 6,3 - - 41 22 54 29 WSW 1012,3 35 0,0
15.01.2019 03:00:00 6,8 6,0 - - 34 18 52 28 WSW 1013,1 50 0,0
15.01.2019 02:00:00 6,7 5,8 - - 35 19 52 28 WSW 1013,6 50 0,0
15.01.2019 01:00:00 6,8 6,1 - - 35 19 48 26 WSW 1014,1 40 0,0
15.01.2019 00:00:00 6,8 6,3 - - 29 16 46 25 WSW 1014,5 50 0,0
14.01.2019 23:00:00 6,4 6,1 - - 29 16 48 26 WSW 1014,9 35 0,0
14.01.2019 22:00:00 6,2 5,9 - - 29 16 46 25 WSW 1015,6 27 0,0
14.01.2019 21:00:00 5,8 5,3 - - 26 14 48 26 WSW 1016,1 11 0,2
14.01.2019 20:00:00 5,5 5,1 - - 31 17 46 25 WSW 1016,4 26 0,0
14.01.2019 19:00:00 5,5 5,1 - - 24 13 - - WSW 1017,3 20 0,0
14.01.2019 18:00:00 5,2 4,4 - - 18 10 - - WSW 1017,7 40 0,0
14.01.2019 17:00:00 4,7 3,7 - - 22 12 - - WSW 1017,6 40 0,0
14.01.2019 16:00:00 5,2 3,5 - - 21 11 - - W 1018,3 35 0,0
14.01.2019 15:00:00 5,6 3,5 - - 22 12 - - W 1018,2 35 0,0
14.01.2019 14:00:00 5,9 3,8 - - 18 10 - - W 1018,6 45 0,0
14.01.2019 13:00:00 5,6 3,8 - - 18 10 - - WNW 1019,1 50 0,0
14.01.2019 12:00:00 6,0 3,6 - - 18 10 - - W 1019,1 50 0,0
14.01.2019 11:00:00 4,8 3,0 - - 5 3 - - WNW 1019,3 40 0,0
14.01.2019 10:00:00 3,3 2,0 - - 8 4 - - W 1019,3 35 0,0
14.01.2019 09:00:00 2,7 1,2 5,7 6,0 5 3 - - SW 1019,0 40 0,0
14.01.2019 08:00:00 3,4 1,7 - - 9 5 - - W 1018,2 40 0,0
14.01.2019 07:00:00 2,7 1,2 - - 5 3 - - W 1017,5 40 0,0
14.01.2019 06:00:00 3,6 2,2 - - 9 5 - - NW 1017,1 40 0,0
14.01.2019 05:00:00 3,3 1,3 - - 8 4 - - WNW 1016,6 45 0,0
14.01.2019 04:00:00 3,4 1,5 - - 15 8 - - WNW 1016,0 50 0,0
14.01.2019 03:00:00 4,0 1,9 - - 18 10 - - WNW 1015,3 45 0,0
14.01.2019 02:00:00 3,4 1,5 - - 16 9 - - W 1014,9 40 0,0
14.01.2019 01:00:00 3,9 2,0 - - 24 13 - - WNW 1014,2 45 0,0
14.01.2019 00:00:00 3,5 2,1 - - 18 10 - - W 1013,2 40 0,0
13.01.2019 23:00:00 4,7 2,2 - - 24 13 - - WNW 1012,3 45 0,0
13.01.2019 22:00:00 5,1 2,8 - - 26 14 - - WNW 1011,2 35 0,0
13.01.2019 21:00:00 5,4 3,3 - - 31 17 52 28 W 1009,9 30 0,0
13.01.2019 20:00:00 5,3 3,5 - - 34 18 46 25 W 1009,3 35 0,0
13.01.2019 19:00:00 4,9 2,7 - - 31 17 50 27 WNW 1009,1 35 0,0
13.01.2019 18:00:00 5,3 3,1 - - 37 20 57 31 WNW 1008,2 35 0,0
13.01.2019 17:00:00 5,4 2,7 - - 34 18 70 38 WNW 1007,9 40 0,0
13.01.2019 16:00:00 6,0 3,6 - - 37 20 59 32 W 1007,1 30 0,0
13.01.2019 15:00:00 6,2 3,7 - - 44 24 67 36 W 1006,6 30 0,0
13.01.2019 14:00:00 6,4 3,9 - - 39 21 59 32 W 1007,1 28 0,0
13.01.2019 13:00:00 6,6 4,2 - - 37 20 52 28 W 1007,2 24 0,0
13.01.2019 12:00:00 7,0 3,3 - - 39 21 61 33 WNW 1007,3 40 0,0
13.01.2019 11:00:00 7,4 5,2 - - 42 23 78 42 W 1007,2 30 0,0
13.01.2019 10:00:00 8,0 6,0 - - 46 25 68 37 W 1007,1 35 0,0
13.01.2019 09:00:00 8,1 6,4 5,7 6,0 46 25 72 39 W 1007,3 50 0,0
13.01.2019 08:00:00 8,6 8,1 - - 42 23 67 36 W 1007,2 8 0,2
13.01.2019 07:00:00 8,6 8,3 - - 46 25 67 36 W 1007,4 16 0,0
13.01.2019 06:00:00 8,5 8,2 - - 50 27 67 36 W 1008,0 18 0,0
13.01.2019 05:00:00 8,4 8,0 - - 50 27 67 36 W 1008,9 8 0,2
13.01.2019 04:00:00 8,4 7,8 - - 50 27 65 35 W 1009,5 21 0,0
13.01.2019 03:00:00 8,2 7,7 - - 46 25 65 35 W 1010,4 21 0,0
13.01.2019 02:00:00 8,2 7,8 - - 35 19 68 37 W 1010,6 22 0,0
13.01.2019 01:00:00 8,3 7,6 - - 48 26 63 34 W 1010,7 40 0,0
13.01.2019 00:00:00 8,3 7,8 - - 46 25 65 35 W 1011,8 17 0,0
12.01.2019 23:00:00 8,5 7,6 - - 48 26 65 35 W 1012,5 19 0,0
12.01.2019 22:00:00 8,4 7,9 - - 39 21 59 32 W 1013,3 11 0,0
12.01.2019 21:00:00 8,6 7,9 - - 41 22 55 30 W 1013,1 25 0,0
12.01.2019 20:00:00 8,7 7,9 - - 44 24 61 33 W 1013,5 23 0,0
12.01.2019 19:00:00 8,6 8,2 - - 41 22 54 29 W 1013,3 14 0,0
12.01.2019 18:00:00 8,7 8,2 - - 34 18 50 27 WNW 1013,9 13 0,0
12.01.2019 17:00:00 8,9 8,0 - - 37 20 54 29 WNW 1013,5 35 0,0
12.01.2019 16:00:00 8,7 8,1 - - 34 18 50 27 W 1013,6 28 0,0
12.01.2019 15:00:00 8,4 7,8 - - 39 21 50 27 W 1013,6 50 0,0
12.01.2019 14:00:00 7,4 6,9 - - 29 16 - - W 1014,4 30 0,0
12.01.2019 13:00:00 6,7 6,1 - - 28 15 - - W 1015,8 29 0,0
12.01.2019 12:00:00 6,8 5,5 - - 31 17 55 30 W 1016,6 35 0,0

tt = Température de l'air
td = dewpoint
tt -20cm = Température de l'air -20cm
tt -100cm = Température de l'air -100cm
ff = Vitesse du vent
fx = gusts
dd = Direction du vent
ppp = reduced air pressure
vv = visibility
rr = Quantités de précipitations

stations d'obs. à proximité